Weather History for KAPA - August, 2013

Change the Weather History Date:

Sunday, August 11, 2013

  Actual Average Record
Temperature  
Mean Temperature 70 °F -  
Max Temperature 80 °F 82 °F 93 °F (2000)
Min Temperature 59 °F 54 °F 52 °F (2001)
Cooling Degree Days 5    
Month to date cooling degree days 69  
Growing Degree Days 18 (Base 50)    
Moisture  
Dew Point 47 °F    
Average Humidity 49    
Maximum Humidity 67    
Minimum Humidity 30    
Precipitation  
Precipitation T in - - ()
Month to date precipitation 2.36  
Year to date precipitation 8.93  
Sea Level Pressure  
Sea Level Pressure 30.07 in    
Wind  
Wind Speed 6 mph (WSW)    
Max Wind Speed 26 mph    
Max Gust Speed 35 mph    
Visibility 10 miles    
Events Thunderstorm    
Averages and records for this station are not official NWS values.
T = Trace of Precipitation, MM = Missing Value Source: NWS Daily Summary

Daily Weather History Graph

Daily Weather History Graph

Search for Another Location

Airport or City:

Trip Planner

Search our weather history database for the weather conditions in past years. The results will help you decide how hot, cold, wet, or windy it might be!

Date:

Astronomy

Aug. 11, 2013 Rise Set
Actual Time 6:08 AM MDT 8:00 PM MDT
Civil Twilight 5:39 AM MDT 8:29 PM MDT
Nautical Twilight 5:03 AM MDT 9:04 PM MDT
Astronomical Twilight 4:25 AM MDT 9:42 PM MDT
Moon 10:57 AM MDT (8/11) 10:18 PM MDT (8/11)
Length of Visible Light 14h 49m
Length of Day
13h 51m
Waxing Crescent, 22% of the Moon is Illuminated
Aug 11
Waxing Crescent
Aug 14
First Quarter
Aug 20
Full
Aug 28
Last Quarter
Sep 5
New

Hourly Weather History & Observations

Time (MDT) Temp. Dew Point Humidity Pressure Visibility Wind Dir Wind Speed Gust Speed Precip Events Conditions
12:53 AM 62.1 °F 48.9 °F 62% 30.05 in 10.0 mi South 6.9 mph - N/A   Mostly Cloudy
1:53 AM 62.1 °F 48.0 °F 60% 30.03 in 10.0 mi SSW 10.4 mph - N/A   Mostly Cloudy
2:53 AM 61.0 °F 46.9 °F 60% 30.01 in 10.0 mi SSW 6.9 mph - N/A   Mostly Cloudy
3:53 AM 61.0 °F 46.9 °F 60% 30.02 in 10.0 mi ESE 5.8 mph - N/A   Mostly Cloudy
4:53 AM 59.0 °F 48.0 °F 67% 30.04 in 10.0 mi Calm Calm - N/A   Mostly Cloudy
5:53 AM 60.1 °F 48.0 °F 64% 30.05 in 10.0 mi West 8.1 mph - N/A   Mostly Cloudy
6:53 AM 59.0 °F 48.9 °F 69% 30.10 in 10.0 mi WNW 5.8 mph - N/A   Mostly Cloudy
7:53 AM 63.0 °F 50.0 °F 63% 30.13 in 10.0 mi WNW 5.8 mph - N/A   Scattered Clouds
8:53 AM 66.9 °F 48.0 °F 51% 30.12 in 10.0 mi NW 4.6 mph - N/A   Scattered Clouds
9:53 AM 70.0 °F 48.0 °F 46% 30.11 in 10.0 mi WNW 3.5 mph - N/A   Scattered Clouds
10:53 AM 73.0 °F 44.1 °F 35% 30.09 in 10.0 mi North 5.8 mph - N/A   Scattered Clouds
11:53 AM 75.0 °F 46.0 °F 36% 30.10 in 10.0 mi Calm Calm - N/A   Scattered Clouds
12:53 PM 77.0 °F 44.1 °F 31% 30.06 in 10.0 mi Calm Calm - N/A   Scattered Clouds
1:53 PM 77.0 °F 45.0 °F 32% 30.05 in 10.0 mi Calm Calm - N/A   Scattered Clouds
2:53 PM 78.1 °F 45.0 °F 31% 30.04 in 10.0 mi East 10.4 mph - N/A   Mostly Cloudy
3:13 PM 77.0 °F 44.6 °F 32% 30.24 in 10.0 mi NE 4.6 mph - N/A Thunderstorm Thunderstorm
3:53 PM 71.1 °F 48.0 °F 44% 30.06 in 10.0 mi NNW 19.6 mph 29.9 mph N/A Thunderstorm Thunderstorm
4:53 PM 72.0 °F 45.0 °F 38% 30.06 in 10.0 mi Calm Calm - 0.00 in   Mostly Cloudy
5:53 PM 73.9 °F 45.0 °F 35% 30.05 in 10.0 mi NW 3.5 mph - N/A   Mostly Cloudy
6:53 PM 73.9 °F 46.0 °F 37% 30.04 in 10.0 mi SW 4.6 mph - N/A   Mostly Cloudy
7:53 PM 69.1 °F 50.0 °F 51% 30.05 in 10.0 mi South 4.6 mph - N/A   Mostly Cloudy
8:53 PM 66.0 °F 50.0 °F 56% 30.06 in 10.0 mi SSW 8.1 mph - N/A   Mostly Cloudy
9:53 PM 66.0 °F 50.0 °F 56% 30.08 in 10.0 mi SSW 5.8 mph - N/A   Scattered Clouds
10:53 PM 63.0 °F 50.0 °F 63% 30.08 in 10.0 mi SSW 5.8 mph - N/A   Mostly Cloudy
11:53 PM 63.0 °F 48.0 °F 58% 30.06 in 10.0 mi SW 8.1 mph - N/A   Scattered Clouds